Regional Weather Roundup
Issued by NWS

Home | Current Version | Previous Version | Graphics & Text | Print | Product List | Glossary On
Versions: 1 2 3 4 5 6 7 8 9 10 11 12 13 14 15 16 17 18 19 20 21 22 23 24 25 26 27 28 29 30 31 32 33 34 35 36 37 38 39 40 41 42 43 44 45 46 47 48 49 50
000
ASUS43 KFSD 290510
RWRSD

WEATHER ROUNDUP FOR SOUTH DAKOTA
NATIONAL WEATHER SERVICE SIOUX FALLS SD
1200 AM CDT FRI AUG 29 2014

NOTE: "FAIR" INDICATES FEW OR NO CLOUDS BELOW 12,000 FEET WITH NO
SIGNIFICANT WEATHER AND/OR OBSTRUCTIONS TO VISIBILITY.


SDZ001>005-009-010-012>017-290600-
NORTHWEST AND NORTH CENTRAL SOUTH DAKOTA

CITY           SKY/WX    TMP DP  RH WIND       PRES   REMARKS
BUFFALO          N/A     65  56  72 SW6       29.82F
FAITH            N/A     64  61  90 S12       29.87F
MOBRIDGE       PTCLDY    63  63 100 E6        29.83F
$$

SDZ012>016-024>037-041>051-057-063-072>074-290600-
SOUTHWEST AND SOUTH CENTRAL SOUTH DAKOTA

CITY           SKY/WX    TMP DP  RH WIND       PRES   REMARKS
RAPID CTY ARPT PTCLDY    60  57  89 CALM      29.93S
PIERRE         MOCLDY    66  66 100 N7        29.82F
CUSTER         CLEAR     53  50  89 NW3       30.07S
ELLSWORTH AFB  PTCLDY    63  60  89 CALM      29.93R
PHILIP         PTCLDY    62  61  96 NW3       29.87F
PINE RIDGE     MOCLDY    55  54  96 CALM      29.96S
WINNER         FAIR      68  66  93 NW7       29.84R
$$

SDZ004>011-016>023-039-040-290600-
NORTHEAST SOUTH DAKOTA

CITY           SKY/WX    TMP DP  RH WIND       PRES   REMARKS
ABERDEEN       CLOUDY    65  65 100 NE3       29.84F
WATERTOWN      FOG       66  65  96 CALM      29.85S VSB 1/2
SISSETON         N/A     65  65 100 SE6       29.83F
$$

SDZ017-020-022-023-036>040-048>070-290600-
SOUTHEAST SOUTH DAKOTA

CITY           SKY/WX    TMP DP  RH WIND       PRES   REMARKS
SIOUX FALLS    CLOUDY    71  69  93 S3        29.81F FOG
HURON          CLOUDY    69  68  96 E6        29.80F
CHAMBERLAIN    CLOUDY    68  67  98 CALM      29.81S
MITCHELL       CLOUDY    71  70  96 E3        29.80F FOG
YANKTON        CLOUDY    70  66  88 W10       29.81S
$$

ABBREVIATIONS USED IN REMARKS
   TC - TEMPERATURE IN CELSIUS
  WCI - WIND CHILL INDEX
   HX - HEAT INDEX
  VSB - VISIBILITY




USA.gov is the U.S. government's official web portal to all federal, state and local government web resources and services.